Regional Weather Roundup
Issued by NWS

Home | Current Version | Previous Version | Text Only | Print | Product List | Glossary Off
Versions: 1 2 3 4 5 6 7 8 9 10 11 12 13 14 15 16 17 18 19 20 21 22 23 24 25 26 27 28 29 30 31 32 33 34 35 36 37 38 39 40 41 42 43 44 45 46 47 48 49 50

000
ASUS43 KFSD 251402
RWRSD

WEATHER ROUNDUP FOR SOUTH DAKOTA
NATIONAL WEATHER SERVICE SIOUX FALLS SD
900 AM CDT MON JUL 25 2016

NOTE: "FAIR" INDICATES FEW OR NO CLOUDS BELOW 12,000 FEET WITH NO
SIGNIFICANT WEATHER AND/OR OBSTRUCTIONS TO VISIBILITY.


SDZ001>005-009-010-012>017-251500-
NORTHWEST AND NORTH CENTRAL SOUTH DAKOTA

CITY           SKY/WX    TMP DP  RH WIND       PRES   REMARKS
BUFFALO          N/A     70  51  51 S3        29.98F
FAITH            N/A     74  54  49 S18       30.04S
MOBRIDGE       SUNNY     77  60  55 S8        30.02S
$$

SDZ012>016-024>037-041>051-057-063-072>074-251500-
SOUTHWEST AND SOUTH CENTRAL SOUTH DAKOTA

CITY           SKY/WX    TMP DP  RH WIND       PRES   REMARKS
RAPID CTY ARPT SUNNY     73  57  57 S21       30.09S
PIERRE         SUNNY     77  59  53 S8        30.06S
CUSTER         SUNNY     67  51  56 CALM      30.23S
PHILIP         SUNNY     75  61  61 VRB3      30.07S
PINE RIDGE     SUNNY     72  61  68 S9        30.14F
WINNER         FAIR      75  52  44 S16       30.13R
$$

SDZ004>011-016>023-039-040-251500-
NORTHEAST SOUTH DAKOTA

CITY           SKY/WX    TMP DP  RH WIND       PRES   REMARKS
ABERDEEN       MOSUNNY   70  60  70 S6        30.08R
WATERTOWN      SUNNY     73  62  68 S5        30.12R
BROOKINGS      SUNNY     71  62  73 CALM      30.12S
SISSETON         N/A     76  64  66 E3        30.07R
$$

SDZ017-020-022-023-036>040-048>070-251500-
SOUTHEAST SOUTH DAKOTA

CITY           SKY/WX    TMP DP  RH WIND       PRES   REMARKS
SIOUX FALLS    MOSUNNY   74  63  68 CALM      30.12S
HURON          SUNNY     73  62  68 VRB3      30.09S
CHAMBERLAIN    SUNNY     75  64  69 S8        30.12S
MITCHELL       SUNNY     73  64  73 S6        30.12R
YANKTON        SUNNY     70  63  78 CALM      30.12R
$$

ABBREVIATIONS USED IN REMARKS
   TC - TEMPERATURE IN CELSIUS
  WCI - WIND CHILL INDEX
   HX - HEAT INDEX
  VSB - VISIBILITY




USA.gov is the U.S. government's official web portal to all federal, state and local government web resources and services.